Snowfall_Accumulation
0.0 0.0 0.0 0.0 0.0 0.0 0.0 0.0 0.0 0.0 0.0 0.0 0.0 0.0 0.0 0.0 0.0 0.0 0.0 0.0 0.0 0.9 0.0 0.0 0.0 0.0 0.0 0.0 0.3 0.0 0.0 0.8 1.8 1.5 2.2 1.9 0.8 1.0 1.0 3.3 1.8 0.8 1.2 1.0 0.4 0.5 0.4 0.0 0.0 0.0 0.0 0.0 0.0 0.0
0.0 0.0 0.0 0.0 0.0 0.0 0.0 0.0 0.0 0.0 0.0 0.0 0.0 0.0 0.0 0.0 0.0 0.0 0.0 0.0 0.0 1.1 0.0 0.0 0.0 0.0 0.0 0.0 0.0 0.1 2.1 2.2 1.2 1.5 1.9 1.2 1.3 2.0 1.3 3.1 4.7 3.8 2.7 2.2 0.3 0.2 0.0 0.0 0.1 0.0 0.0 0.0 0.0 0.0
0.0 0.0 0.0 0.0 0.0 0.0 0.0 0.0 0.0 0.0 0.0 0.0 0.0 0.0 0.0 0.0 0.0 0.0 0.0 0.0 0.0 4.6 0.1 0.0 0.0 0.0 0.0 0.0 0.0 1.0 0.0 0.0 5.3 3.5 3.1 2.4 3.0 2.0 1.6 2.7 6.4 5.0 2.2 4.2 1.0 0.2 0.5 0.0 0.0 0.0 0.0 0.0 0.0 0.0
0.0 0.0 0.0 0.0 0.0 0.0 0.0 0.0 0.0 0.0 0.0 0.0 0.0 0.0 0.0 0.0 0.0 0.0 0.0 0.0 0.0 2.3 2.0 0.0 0.0 0.0 0.0 0.0 0.0 0.0 0.0 0.0 0.0 0.0 1.7 1.7 0.8 0.1 1.7 1.6 3.8 9.0 7.5 6.0 3.0 0.2 0.8 0.2 0.2 0.1 0.0 0.0 0.0 0.0
0.0 0.0 0.0 0.0 0.0 0.0 0.0 0.0 0.0 0.0 0.0 0.0 0.0 0.0 0.0 0.0 0.0 0.0 0.0 0.0 0.0 0.1 1.6 0.5 0.0 0.0 0.0 0.0 0.0 0.0 0.0 0.0 0.0 1.2 1.0 0.5 0.0 0.2 0.1 0.8 5.6 3.0 11.4 10.4 8.7 2.3 3.1 0.7 0.6 0.3 0.1 0.5 1.3 0.8
0.0 0.0 0.0 0.0 0.0 0.0 0.0 0.0 0.0 0.0 0.0 0.0 0.0 0.0 0.0 0.0 0.0 0.0 9.2 0.0 0.0 0.0 5.4 1.8 0.0 0.0 0.0 0.0 0.0 0.0 0.0 0.0 0.0 0.3 0.5 0.1 0.0 0.7 1.3 1.1 1.0 1.7 6.3 8.3 11.1 4.8 3.6 3.7 2.0 0.8 1.9 3.1 3.9 2.5
0.0 0.0 0.0 0.0 0.0 0.0 0.0 0.0 0.0 0.0 0.0 0.0 0.0 0.0 0.0 0.0 0.0 2.1 2.6 0.0 0.0 0.0 10.9 3.3 0.1 0.0 0.0 0.0 0.0 0.0 0.0 0.1 0.3 0.3 0.2 0.3 0.2 0.8 1.1 0.1 0.0 0.0 2.1 4.7 6.7 8.8 8.4 9.2 10.8 7.0 2.4 2.8 3.1 1.3
0.0 0.0 0.0 0.0 0.0 0.0 0.0 0.0 0.0 0.0 0.0 0.0 0.0 0.0 0.0 0.0 0.0 0.5 0.0 0.0 0.0 0.0 5.0 2.9 0.6 0.8 0.0 0.3 0.9 0.0 0.1 0.3 0.7 0.7 0.3 0.2 0.4 0.5 0.8 0.0 0.0 0.1 0.3 0.8 0.8 1.3 3.8 4.9 4.6 4.3 1.8 0.6 0.1 0.0
0.0 0.0 0.0 0.0 0.0 0.0 0.0 0.0 0.0 0.0 0.0 0.0 0.0 0.0 0.0 0.0 7.4 0.0 0.0 0.0 0.0 2.5 4.9 0.5 0.2 1.7 0.0 2.7 0.3 0.5 0.1 1.9 0.0 1.6 0.4 0.6 0.7 0.9 0.4 0.0 0.0 0.1 0.1 0.0 0.0 0.0 0.0 0.0 0.0 0.0 0.3 0.1 0.0 0.0
0.0 0.0 0.0 0.0 0.0 0.0 0.0 0.0 0.0 0.0 0.0 0.0 0.0 7.9 11.6 2.3 0.0 0.0 0.0 4.9 6.5 5.5 3.0 1.3 0.0 0.4 0.0 0.6 4.8 5.3 3.7 1.6 2.1 0.7 0.2 1.4 1.0 0.6 0.3 0.3 0.2 0.0 0.0 0.0 0.0 0.0 0.0 0.0 0.0 0.0 0.0 0.2 0.2 0.1
0.0 0.0 0.0 0.0 0.0 0.0 0.0 0.0 0.0 0.0 0.0 0.0 7.8 3.0 0.0 0.0 0.0 4.9 10.6 6.4 4.5 2.7 0.2 0.0 0.0 0.8 0.0 1.8 3.5 2.9 5.3 3.1 1.5 0.5 0.7 0.9 1.7 1.5 0.7 0.3 0.2 0.0 0.0 0.0 0.0 0.0 0.0 0.0 0.0 0.0 0.0 0.0 0.0 0.0
0.0 0.0 0.0 0.0 0.0 0.0 0.0 0.0 0.0 0.0 0.0 0.0 0.0 0.0 0.0 3.1 5.2 5.6 5.1 3.0 0.3 0.0 0.0 0.0 0.0 0.0 0.1 0.0 6.6 5.5 3.7 3.1 1.6 0.3 1.7 2.2 2.3 0.9 0.3 0.2 0.0 0.0 0.0 0.0 0.0 0.0 0.0 0.0 0.0 0.1 0.0 0.1 0.1 0.2
0.0 0.0 0.0 0.0 0.0 0.0 0.0 0.0 0.0 0.0 0.0 0.0 4.0 4.4 4.1 1.6 5.2 2.1 1.6 0.8 0.1 0.0 0.0 0.0 0.3 0.0 0.1 0.3 6.2 5.5 6.4 2.5 2.3 8.5 5.4 1.8 1.1 0.6 0.3 0.1 0.0 0.0 0.0 0.0 0.0 0.0 0.0 0.0 0.0 0.0 0.1 0.2 0.1 0.1
0.0 0.0 0.0 0.0 0.0 0.0 0.0 0.0 0.0 0.0 0.0 3.5 4.5 4.4 2.0 0.0 1.2 0.5 0.1 0.0 0.1 0.0 0.0 0.0 0.0 0.3 0.1 0.7 0.4 1.7 3.8 5.2 4.9 1.8 1.1 1.9 1.1 0.6 0.2 0.1 0.0 0.0 0.0 0.0 0.0 0.0 0.0 0.0 0.0 0.0 0.1 0.2 0.1 0.2
0.0 0.0 0.0 0.0 0.0 0.0 0.0 0.0 0.0 0.0 3.5 4.7 2.0 1.1 0.2 0.1 0.0 0.1 0.2 0.0 0.0 0.0 0.0 0.2 0.3 0.6 1.3 1.2 1.2 0.1 0.6 1.7 1.5 1.4 1.8 1.6 0.4 0.0 0.1 0.0 0.0 0.0 0.1 0.1 0.0 0.0 0.0 0.0 0.0 0.1 0.1 0.2 0.2 0.3
0.0 0.0 0.0 0.0 0.0 0.0 0.0 0.0 3.1 2.1 1.7 1.5 0.3 0.3 0.6 0.0 0.3 0.2 0.3 0.2 0.0 0.1 0.4 1.6 2.0 1.7 0.5 1.2 1.2 1.0 1.3 1.5 1.2 0.9 0.6 0.0 0.0 0.0 0.1 0.1 0.0 0.0 0.1 0.1 0.1 0.0 0.0 0.0 0.1 0.2 0.2 0.3 0.4 0.5
0.0 0.0 0.0 0.0 0.0 0.0 0.0 1.8 1.8 1.4 0.4 0.2 0.3 0.3 0.5 0.1 0.5 0.6 0.6 0.4 0.5 1.0 1.9 1.9 4.0 3.1 2.4 0.2 0.2 0.2 0.5 0.8 0.6 0.5 0.1 0.1 0.1 0.1 0.1 0.0 0.0 0.0 0.1 0.1 0.0 0.0 0.1 0.1 0.1 0.0 0.0 0.6 0.5 0.6
0.0 0.0 0.0 0.0 0.0 1.6 1.6 0.9 0.5 0.3 0.0 0.1 0.3 0.4 0.0 0.3 0.5 0.5 0.6 0.7 1.1 1.0 0.4 1.2 0.0 0.0 0.3 0.5 0.5 0.9 1.3 0.9 0.1 0.0 0.0 0.1 0.1 0.0 0.0 0.1 0.0 0.0 0.0 0.0 0.0 0.1 0.1 0.1 0.1 0.2 0.4 0.5 0.5 0.7
0.0 0.0 0.0 0.0 0.0 0.1 1.6 0.2 0.0 0.0 0.3 0.1 0.4 0.2 0.1 0.5 0.7 0.6 0.7 0.9 0.9 0.5 0.2 0.4 0.8 0.1 0.3 0.3 0.9 0.9 1.0 0.8 0.9 0.3 0.1 0.1 0.0 0.1 0.0 0.0 0.0 0.0 0.3 0.3 0.4 0.3 0.3 0.2 0.2 0.5 0.6 0.5 0.6 0.8
0.0 0.0 0.0 0.0 0.0 0.1 0.0 0.0 0.0 0.0 0.2 0.1 0.0 0.1 0.1 0.6 0.4 0.4 0.2 0.2 0.2 0.5 0.7 0.7 0.9 0.9 1.0 1.4 1.5 1.8 1.5 1.3 1.0 1.5 0.6 0.3 0.2 0.1 0.0 0.1 0.1 0.1 0.1 0.2 0.2 0.3 0.2 0.4 0.6 0.6 0.6 0.7 0.7 0.9
0.0 0.0 0.0 0.0 0.0 0.1 0.0 0.0 0.0 0.0 0.1 0.1 0.2 0.0 0.3 0.0 0.1 0.2 0.1 0.0 0.1 0.5 0.8 1.0 1.2 1.3 1.2 1.3 1.2 1.1 1.0 0.6 0.8 0.6 0.9 0.6 0.5 0.4 0.5 0.4 0.2 0.2 0.2 0.3 0.3 0.4 0.4 0.6 0.6 0.7 0.8 0.9 1.0 0.9
0.0 0.0 0.0 0.0 0.0 0.0 0.0 0.0 0.0 0.0 0.0 0.1 0.2 0.0 0.1 0.1 0.1 0.1 0.0 0.0 0.5 1.2 1.0 1.0 1.1 1.1 0.8 0.9 1.1 1.1 1.1 0.6 0.4 0.4 0.4 0.2 0.5 0.3 0.5 0.2 0.2 0.4 0.3 0.4 0.4 0.4 0.6 0.6 0.6 0.5 0.6 0.8 0.5 0.7
0.0 0.0 0.0 0.0 0.0 0.0 0.1 0.8 0.2 0.3 0.1 0.4 0.0 0.1 0.3 0.2 0.3 0.0 0.1 0.5 1.3 1.7 1.2 1.4 1.4 1.1 1.1 1.2 0.8 0.7 0.7 0.3 0.5 0.7 0.5 0.4 0.5 0.5 0.5 0.6 0.5 0.4 0.6 0.8 0.5 0.6 0.7 0.6 0.5 0.5 0.4 0.4 0.4 0.4
0.0 0.0 0.2 0.3 0.1 0.3 0.3 0.1 0.0 0.0 0.0 0.0 0.0 0.1 0.0 0.0 0.0 0.0 0.2 0.8 1.5 1.6 1.1 1.0 0.8 0.8 0.2 0.0 0.1 0.2 0.5 0.1 0.0 0.1 0.4 0.1 0.2 0.6 0.5 0.6 0.6 0.6 0.6 0.7 0.6 0.6 0.7 0.7 0.4 0.3 0.2 0.2 0.3 0.3
0.3 0.0 0.0 0.0 0.0 0.0 0.0 0.0 0.0 0.0 0.0 0.0 0.0 0.1 0.2 0.0 0.0 0.0 0.1 0.5 0.3 0.3 0.2 0.3 0.0 0.0 0.1 0.1 0.1 0.0 0.0 0.1 0.1 0.0 0.2 0.5 0.3 0.4 0.4 0.5 0.6 1.0 0.9 0.7 0.7 0.7 0.6 0.5 0.3 0.3 0.2 0.1 0.1 0.1
0.0 0.0 0.0 0.0 0.0 0.0 0.0 0.0 0.0 0.0 0.0 0.0 0.0 0.0 0.0 0.0 0.0 0.1 0.2 0.3 0.1 0.1 0.1 0.3 0.3 0.0 0.0 0.0 0.0 0.1 0.0 0.1 0.0 0.0 0.4 0.4 0.3 0.7 0.6 0.4 0.4 0.6 0.7 0.7 0.6 0.6 0.7 0.5 0.4 0.3 0.3 0.2 0.1 0.1
0.0 0.0 0.0 0.0 0.0 0.0 0.0 0.0 0.0 0.0 0.0 0.0 0.0 0.0 0.0 0.0 0.0 0.2 0.2 0.1 0.1 0.1 0.1 0.1 0.0 0.0 0.0 0.1 0.1 0.2 0.0 0.0 0.0 0.2 0.1 0.2 0.2 0.2 0.1 0.3 0.4 1.0 0.7 0.6 0.5 0.4 0.4 0.4 0.4 0.4 0.4 0.3 0.2 0.2
0.0 0.0 0.0 0.0 0.0 0.0 0.0 0.0 0.0 0.0 0.0 0.0 0.0 0.0 0.0 0.0 0.2 0.2 0.0 0.0 0.0 0.0 0.0 0.0 0.0 0.0 0.0 0.0 0.0 0.1 0.0 0.1 0.1 0.0 0.0 0.0 0.0 0.2 0.3 0.2 0.1 0.1 0.1 0.2 0.3 0.1 0.1 0.1 0.2 0.2 0.2 0.2 0.2 0.1
0.0 0.0 0.0 0.0 0.0 0.0 0.0 0.0 0.0 0.1 0.1 0.0 0.0 0.0 0.2 0.5 0.4 0.2 0.2 0.1 0.2 0.2 0.2 0.1 0.2 0.0 0.0 0.0 0.0 0.0 0.0 0.1 0.0 0.1 0.1 0.0 0.0 0.0 0.0 0.1 0.1 0.2 0.0 0.1 0.1 0.0 0.0 0.0 0.0 0.0 0.0 0.1 0.1 0.1
0.0 0.0 0.0 0.0 0.0 0.0 0.4 0.1 0.2 0.1 0.0 0.0 0.1 0.0 0.2 0.8 1.2 0.4 0.3 0.1 0.1 0.1 0.1 0.0 0.0 0.0 0.0 0.0 0.0 0.0 0.0 0.0 0.1 0.0 0.0 0.0 0.1 0.0 0.0 0.0 0.0 0.0 0.0 0.0 0.1 0.1 0.1 0.1 0.0 0.0 0.0 0.0 0.1 0.1
0.0 0.0 0.0 0.0 0.1 0.5 0.2 0.0 0.0 0.0 0.0 0.0 0.0 0.0 0.0 0.5 0.6 0.4 0.2 0.2 0.2 0.3 0.1 0.1 0.0 0.0 0.0 0.0 0.1 0.0 0.0 0.0 0.0 0.0 0.0 0.0 0.0 0.0 0.0 0.0 0.0 0.0 0.0 0.0 0.0 0.0 0.0 0.1 0.0 0.0 0.0 0.0 0.0 0.0
0.0 0.0 0.0 0.0 0.3 0.2 0.3 0.2 0.0 0.0 0.0 0.0 0.0 0.0 0.0 0.0 0.1 0.2 0.1 0.3 0.2 0.0 0.0 0.0 0.0 0.0 0.0 0.0 0.0 0.0 0.0 0.0 0.0 0.0 0.0 0.0 0.0 0.0 0.0 0.0 0.0 0.0 0.0 0.0 0.0 0.0 0.0 0.0 0.0 0.1 0.0 0.0 0.0 0.0
0.0 0.0 0.0 0.0 0.1 0.0 0.0 0.0 0.0 0.0 0.0 0.0 0.0 0.0 0.1 0.0 0.1 0.1 0.2 0.2 0.1 0.1 0.0 0.0 0.0 0.0 0.0 0.0 0.0 0.0 0.0 0.0 0.0 0.0 0.0 0.0 0.0 0.0 0.0 0.0 0.0 0.0 0.0 0.0 0.0 0.0 0.0 0.0 0.0 0.0 0.0 0.0 0.0 0.0